EWG1551 EDDF-GCFV

Flight info

Callsign EWG1551
Flight time 4h 19m
Altitude 33000
Route ANEKI2L/18 ANEKI Y163 HERBI Y164 MOPAN DCT LUTIX DCT BENOT/N0447F350 DCT NEMOS DCT NINTU DCT MEBAK DCT REPSI DCT LERGA DCT MINSO DCT NARAK DCT AGN DCT MAQAB DCT TIVLI DCT ELSAP DCT ZAR DCT KONKE DCT TERSA DCT CJN DCT VTB DCT INPAN DCT CRISA DCT HIJ DCT SVL DCT CLANA DCT KORNO UN857 TERTO
Aircraft A321/M-SDE3FGHIRWY/LB1

Departure

Time 2026-04-07 15:31
Airport Frankfurt Main Airport (EDDF)

Arrival

Time 2026-04-07 19:50
Airport Fuerteventura Airport (GCFV)
Time Latitude Longitude Altitude Speed Heading
2026-04-07 14:56 50.04991 8.57598 356 ft 0 kts 22°
2026-04-07 15:18 50.04985 8.57594 361 ft 4 kts 22°
2026-04-07 15:18 50.04960 8.57579 357 ft 4 kts 22°
2026-04-07 15:18 50.04938 8.57562 362 ft 4 kts 56°
2026-04-07 15:18 50.04934 8.57532 362 ft 2 kts 114°
2026-04-07 15:19 50.04928 8.57552 364 ft 4 kts 114°
2026-04-07 15:19 50.04917 8.57591 356 ft 4 kts 114°
2026-04-07 15:19 50.04907 8.57625 358 ft 1 kts 114°
2026-04-07 15:19 50.04907 8.57626 358 ft 0 kts 114°
2026-04-07 15:21 50.04904 8.57634 358 ft 4 kts 114°
2026-04-07 15:21 50.04882 8.57711 359 ft 11 kts 113°
2026-04-07 15:22 50.04845 8.57845 362 ft 15 kts 117°
2026-04-07 15:22 50.04760 8.57930 359 ft 16 kts 159°
2026-04-07 15:22 50.04655 8.57991 362 ft 16 kts 160°
2026-04-07 15:22 50.04553 8.58018 368 ft 14 kts 210°
2026-04-07 15:23 50.04513 8.57893 368 ft 15 kts 250°
2026-04-07 15:23 50.04463 8.57684 367 ft 25 kts 250°
2026-04-07 15:23 50.04393 8.57393 366 ft 31 kts 250°
2026-04-07 15:23 50.04318 8.57079 362 ft 31 kts 249°
2026-04-07 15:24 50.04241 8.56756 363 ft 32 kts 250°
2026-04-07 15:24 50.04161 8.56418 361 ft 34 kts 250°
2026-04-07 15:24 50.04077 8.56070 358 ft 35 kts 249°
2026-04-07 15:24 50.03995 8.55725 354 ft 29 kts 249°
2026-04-07 15:25 50.03930 8.55453 355 ft 27 kts 250°
2026-04-07 15:25 50.03864 8.55178 355 ft 27 kts 250°
2026-04-07 15:25 50.03796 8.54894 352 ft 29 kts 249°
2026-04-07 15:25 50.03725 8.54597 347 ft 30 kts 249°
2026-04-07 15:26 50.03650 8.54282 346 ft 31 kts 250°
2026-04-07 15:26 50.03573 8.53961 337 ft 32 kts 249°
2026-04-07 15:26 50.03502 8.53664 338 ft 25 kts 249°
2026-04-07 15:26 50.03448 8.53440 338 ft 21 kts 249°
2026-04-07 15:27 50.03401 8.53244 333 ft 20 kts 249°
2026-04-07 15:27 50.03352 8.53035 334 ft 19 kts 250°
2026-04-07 15:27 50.03316 8.52889 331 ft 14 kts 249°
2026-04-07 15:27 50.03286 8.52764 332 ft 0 kts 250°
2026-04-07 15:28 50.03286 8.52763 332 ft 0 kts 250°
2026-04-07 15:28 50.03285 8.52760 332 ft 1 kts 250°
2026-04-07 15:28 50.03276 8.52721 333 ft 6 kts 250°
2026-04-07 15:28 50.03250 8.52640 333 ft 12 kts 233°
2026-04-07 15:29 50.03185 8.52595 335 ft 0 kts 181°
2026-04-07 15:30 50.03103 8.52596 335 ft 42 kts 180°
2026-04-07 15:30 50.02559 8.52604 334 ft 110 kts 179°
2026-04-07 15:30 50.01612 8.52617 332 ft 163 kts 180°
2026-04-07 15:31 50.00372 8.52646 702 ft 177 kts 177°
2026-04-07 15:31 49.99180 8.52594 1631 ft 164 kts 179°
2026-04-07 15:31 49.98009 8.52640 1944 ft 180 kts 175°
2026-04-07 15:31 49.96685 8.52766 2123 ft 202 kts 175°
2026-04-07 15:32 49.95212 8.52911 2273 ft 223 kts 175°
2026-04-07 15:32 49.93616 8.53058 2618 ft 236 kts 175°
2026-04-07 15:32 49.91969 8.53194 3315 ft 237 kts 176°
2026-04-07 15:32 49.90317 8.53317 4019 ft 239 kts 175°
2026-04-07 15:33 49.88645 8.53434 4699 ft 243 kts 175°
2026-04-07 15:33 49.86948 8.53550 5330 ft 246 kts 176°
2026-04-07 15:33 49.85234 8.53670 5997 ft 248 kts 176°
2026-04-07 15:33 49.83499 8.53790 6625 ft 251 kts 176°
2026-04-07 15:34 49.81788 8.53907 7143 ft 255 kts 177°
2026-04-07 15:34 49.79981 8.54032 7721 ft 259 kts 177°
2026-04-07 15:34 49.78180 8.54133 8344 ft 260 kts 181°
2026-04-07 15:34 49.76314 8.53928 8603 ft 280 kts 185°
2026-04-07 15:35 49.74317 8.53664 8914 ft 294 kts 185°
2026-04-07 15:35 49.72254 8.53385 9448 ft 299 kts 185°
2026-04-07 15:35 49.70169 8.53100 10052 ft 302 kts 185°
2026-04-07 15:35 49.68054 8.52814 10462 ft 313 kts 185°
2026-04-07 15:36 49.65808 8.52512 10583 ft 332 kts 185°
2026-04-07 15:36 49.63474 8.52200 10697 ft 350 kts 185°
2026-04-07 15:36 49.60971 8.51867 10982 ft 361 kts 185°
2026-04-07 15:36 49.58446 8.51535 11465 ft 365 kts 185°
2026-04-07 15:37 49.55936 8.51207 11969 ft 369 kts 185°
2026-04-07 15:37 49.53368 8.50872 12487 ft 372 kts 185°
2026-04-07 15:37 49.50774 8.50533 13007 ft 375 kts 185°
2026-04-07 15:37 49.48166 8.50191 13527 ft 378 kts 185°
2026-04-07 15:38 49.45573 8.49854 14032 ft 381 kts 185°
2026-04-07 15:38 49.42902 8.49508 14507 ft 384 kts 185°
2026-04-07 15:38 49.40230 8.49160 14989 ft 386 kts 185°
2026-04-07 15:38 49.37536 8.48808 15458 ft 389 kts 185°
2026-04-07 15:39 49.34833 8.48454 15914 ft 392 kts 185°
2026-04-07 15:39 49.32108 8.48094 16370 ft 394 kts 185°
2026-04-07 15:39 49.29360 8.47731 16820 ft 397 kts 185°
2026-04-07 15:39 49.26601 8.47369 17269 ft 400 kts 185°
2026-04-07 15:40 49.23819 8.47007 17713 ft 403 kts 185°
2026-04-07 15:40 49.21007 8.46647 18151 ft 405 kts 185°
2026-04-07 15:40 49.18191 8.46288 18587 ft 408 kts 185°
2026-04-07 15:40 49.15357 8.45924 18959 ft 410 kts 185°
2026-04-07 15:41 49.12507 8.45553 19329 ft 412 kts 186°
2026-04-07 15:41 49.09675 8.45183 19696 ft 414 kts 186°
2026-04-07 15:41 49.06796 8.44782 20055 ft 416 kts 188°
2026-04-07 15:41 49.03956 8.43920 20423 ft 417 kts 194°
2026-04-07 15:42 49.01124 8.42928 20792 ft 419 kts 194°
2026-04-07 15:42 48.98275 8.41935 21156 ft 421 kts 194°
2026-04-07 15:42 48.92544 8.39940 21882 ft 424 kts 194°
2026-04-07 15:43 48.89663 8.38935 22237 ft 426 kts 194°
2026-04-07 15:43 48.86757 8.37919 22589 ft 428 kts 194°
2026-04-07 15:43 48.83845 8.36906 22937 ft 431 kts 194°
2026-04-07 15:43 48.80915 8.35897 23272 ft 433 kts 193°
2026-04-07 15:44 48.77968 8.34883 23630 ft 435 kts 194°
2026-04-07 15:44 48.75023 8.33841 23951 ft 436 kts 194°
2026-04-07 15:44 48.72064 8.32761 24237 ft 438 kts 194°
2026-04-07 15:44 48.69092 8.31660 24523 ft 440 kts 194°
2026-04-07 15:45 48.66114 8.30558 24811 ft 442 kts 194°
2026-04-07 15:45 48.63125 8.29456 25103 ft 443 kts 194°
2026-04-07 15:45 48.60118 8.28355 25367 ft 445 kts 194°
2026-04-07 15:45 48.57097 8.27258 25637 ft 447 kts 194°
2026-04-07 15:46 48.54065 8.26166 25914 ft 449 kts 194°
2026-04-07 15:46 48.51025 8.25072 26183 ft 450 kts 194°
2026-04-07 15:46 48.47975 8.23970 26458 ft 452 kts 194°
2026-04-07 15:46 48.44908 8.22854 26726 ft 454 kts 194°
2026-04-07 15:47 48.41839 8.21727 26996 ft 455 kts 194°
2026-04-07 15:47 48.38755 8.20598 27260 ft 457 kts 194°
2026-04-07 15:47 48.35664 8.19468 27523 ft 458 kts 194°
2026-04-07 15:47 48.32554 8.18332 27782 ft 460 kts 194°
2026-04-07 15:48 48.29437 8.17196 28037 ft 462 kts 194°
2026-04-07 15:48 48.26311 8.16040 28292 ft 463 kts 197°
2026-04-07 15:48 48.23304 8.14446 28528 ft 464 kts 205°
2026-04-07 15:48 48.20394 8.12333 28773 ft 465 kts 207°
2026-04-07 15:49 48.17493 8.10177 29027 ft 467 kts 207°
2026-04-07 15:49 48.14576 8.08007 29231 ft 468 kts 207°
2026-04-07 15:49 48.11651 8.05836 29460 ft 470 kts 207°
2026-04-07 15:49 48.08719 8.03669 29657 ft 471 kts 207°
2026-04-07 15:50 48.05768 8.01497 29868 ft 473 kts 207°
2026-04-07 15:50 48.02808 7.99329 30051 ft 474 kts 207°
2026-04-07 15:50 47.99848 7.97163 30268 ft 474 kts 207°
2026-04-07 15:50 47.96885 7.94994 30502 ft 473 kts 207°
2026-04-07 15:51 47.93928 7.92831 30739 ft 472 kts 207°
2026-04-07 15:51 47.90982 7.90675 30989 ft 471 kts 207°
2026-04-07 15:51 47.88072 7.88544 31240 ft 470 kts 207°
2026-04-07 15:51 47.85142 7.86398 31476 ft 469 kts 207°
2026-04-07 15:52 47.82216 7.84262 31711 ft 468 kts 207°
2026-04-07 15:52 47.79289 7.82133 31925 ft 467 kts 207°
2026-04-07 15:52 47.76371 7.80014 32143 ft 466 kts 207°
2026-04-07 15:52 47.73460 7.77897 32377 ft 465 kts 206°
2026-04-07 15:53 47.70552 7.75784 32601 ft 464 kts 206°
2026-04-07 15:53 47.67656 7.73682 32821 ft 464 kts 206°
2026-04-07 15:53 47.64749 7.71579 33044 ft 463 kts 206°
2026-04-07 15:53 47.61857 7.69495 33197 ft 462 kts 206°
2026-04-07 15:54 47.56119 7.65368 33217 ft 456 kts 206°
2026-04-07 15:54 47.50450 7.61290 33223 ft 455 kts 206°
2026-04-07 15:55 47.44755 7.57195 33222 ft 456 kts 206°
2026-04-07 15:55 47.39055 7.53109 33223 ft 455 kts 206°
2026-04-07 15:56 47.33353 7.49037 33222 ft 455 kts 206°
2026-04-07 15:56 47.27651 7.44974 33228 ft 455 kts 206°
2026-04-07 15:57 47.21948 7.40911 33241 ft 455 kts 206°
2026-04-07 15:57 47.16552 7.36120 33235 ft 455 kts 220°
2026-04-07 15:58 47.12300 7.29292 33241 ft 454 kts 232°
2026-04-07 15:58 47.08345 7.21990 33495 ft 457 kts 231°
2026-04-07 15:59 47.06356 7.18349 33696 ft 457 kts 231°
2026-04-07 15:59 47.04370 7.14717 33948 ft 456 kts 231°
2026-04-07 15:59 47.02385 7.11089 34175 ft 455 kts 231°
2026-04-07 15:59 47.00431 7.07516 34338 ft 455 kts 231°
2026-04-07 16:00 46.98431 7.03855 34519 ft 454 kts 231°
2026-04-07 16:00 46.96460 7.00246 34686 ft 454 kts 231°
2026-04-07 16:00 46.94490 6.96645 34823 ft 454 kts 231°
2026-04-07 16:00 46.92532 6.93080 34995 ft 453 kts 231°
2026-04-07 16:01 46.90553 6.89489 35171 ft 453 kts 231°
2026-04-07 16:01 46.88576 6.85910 35219 ft 452 kts 231°
2026-04-07 16:01 46.84622 6.78771 35221 ft 452 kts 231°
2026-04-07 16:02 46.80671 6.71634 35218 ft 451 kts 231°
2026-04-07 16:02 46.76717 6.64521 35216 ft 452 kts 230°
2026-04-07 16:03 46.72746 6.57391 35214 ft 453 kts 230°
2026-04-07 16:03 46.68770 6.50270 35215 ft 453 kts 230°
2026-04-07 16:04 46.64779 6.43147 35225 ft 454 kts 230°
2026-04-07 16:04 46.60792 6.36041 35231 ft 453 kts 230°
2026-04-07 16:05 46.56797 6.28934 35233 ft 453 kts 230°
2026-04-07 16:05 46.52796 6.21849 35230 ft 453 kts 230°
2026-04-07 16:06 46.49470 6.15974 35238 ft 453 kts 230°
2026-04-07 16:06 46.44810 6.07760 35227 ft 453 kts 230°
2026-04-07 16:07 46.41453 6.01861 35231 ft 453 kts 230°
2026-04-07 16:07 46.37470 5.94868 35218 ft 453 kts 230°
2026-04-07 16:08 46.33451 5.87836 35216 ft 453 kts 229°
2026-04-07 16:08 46.29398 5.80763 35221 ft 453 kts 230°
2026-04-07 16:09 46.25398 5.73796 35215 ft 453 kts 229°
2026-04-07 16:09 46.21364 5.66794 35214 ft 453 kts 229°
2026-04-07 16:10 46.17327 5.59802 35219 ft 453 kts 229°
2026-04-07 16:10 46.13444 5.52642 35217 ft 454 kts 234°
2026-04-07 16:11 46.09863 5.45142 35205 ft 454 kts 234°
2026-04-07 16:11 46.06279 5.37663 35201 ft 454 kts 234°
2026-04-07 16:12 46.02672 5.30183 35206 ft 454 kts 234°
2026-04-07 16:12 45.99072 5.22730 35204 ft 454 kts 234°
2026-04-07 16:13 45.95465 5.15283 35200 ft 454 kts 234°
2026-04-07 16:13 45.91852 5.07849 35213 ft 453 kts 233°
2026-04-07 16:14 45.88240 5.00439 35217 ft 453 kts 233°
2026-04-07 16:14 45.84630 4.93036 35208 ft 453 kts 232°
2026-04-07 16:15 45.81016 4.85642 35207 ft 453 kts 233°
2026-04-07 16:15 45.77412 4.78291 35205 ft 453 kts 233°
2026-04-07 16:16 45.73778 4.70914 35203 ft 453 kts 232°
2026-04-07 16:16 45.70136 4.63541 35199 ft 453 kts 233°
2026-04-07 16:17 45.66504 4.56189 35193 ft 452 kts 233°
2026-04-07 16:17 45.62875 4.48855 35190 ft 452 kts 233°
2026-04-07 16:18 45.59235 4.41528 35189 ft 452 kts 233°
2026-04-07 16:18 45.55607 4.34253 35189 ft 452 kts 233°
2026-04-07 16:19 45.51958 4.26949 35197 ft 452 kts 232°
2026-04-07 16:19 45.48310 4.19658 35195 ft 451 kts 232°
2026-04-07 16:20 45.44655 4.12384 35193 ft 451 kts 232°
2026-04-07 16:20 45.41005 4.05135 35191 ft 451 kts 232°
2026-04-07 16:21 45.37343 3.97883 35191 ft 451 kts 232°
2026-04-07 16:21 45.33701 3.90698 35208 ft 450 kts 232°
2026-04-07 16:22 45.30033 3.83484 35220 ft 450 kts 232°
2026-04-07 16:22 45.26367 3.76287 35227 ft 450 kts 232°
2026-04-07 16:23 45.22734 3.69048 35194 ft 450 kts 233°
2026-04-07 16:23 45.19174 3.61752 35192 ft 450 kts 233°
2026-04-07 16:24 45.15607 3.54460 35195 ft 450 kts 233°
2026-04-07 16:24 45.12017 3.47194 35195 ft 450 kts 233°
2026-04-07 16:25 45.08405 3.39952 35198 ft 450 kts 232°
2026-04-07 16:25 45.04813 3.32758 35194 ft 450 kts 233°
2026-04-07 16:26 45.01209 3.25511 35204 ft 450 kts 233°
2026-04-07 16:26 44.97598 3.18266 35205 ft 450 kts 233°
2026-04-07 16:27 44.93973 3.11050 35214 ft 450 kts 233°
2026-04-07 16:27 44.90342 3.03840 35210 ft 451 kts 232°
2026-04-07 16:28 44.86707 2.96625 35214 ft 450 kts 231°
2026-04-07 16:28 44.83129 2.89435 35213 ft 450 kts 234°
2026-04-07 16:29 44.79715 2.82009 35212 ft 451 kts 235°
2026-04-07 16:29 44.76366 2.74548 35212 ft 451 kts 235°
2026-04-07 16:30 44.72976 2.67132 35213 ft 450 kts 234°
2026-04-07 16:30 44.69549 2.59772 35216 ft 450 kts 234°
2026-04-07 16:31 44.66111 2.52410 35218 ft 450 kts 234°
2026-04-07 16:31 44.62698 2.45114 35216 ft 449 kts 234°
2026-04-07 16:32 44.59273 2.37774 35214 ft 449 kts 234°
2026-04-07 16:32 44.55842 2.30435 35213 ft 450 kts 234°
2026-04-07 16:33 44.52403 2.23116 35214 ft 449 kts 235°
2026-04-07 16:33 44.48964 2.15806 35209 ft 448 kts 234°
2026-04-07 16:34 44.45549 2.08567 35196 ft 448 kts 234°
2026-04-07 16:34 44.42107 2.01301 35190 ft 448 kts 234°
2026-04-07 16:35 44.38662 1.94045 35175 ft 447 kts 235°
2026-04-07 16:35 44.35216 1.86801 35180 ft 447 kts 236°
2026-04-07 16:36 44.31771 1.79583 35172 ft 446 kts 235°
2026-04-07 16:36 44.28338 1.72369 35169 ft 445 kts 236°
2026-04-07 16:37 44.25013 1.65139 35156 ft 445 kts 236°
2026-04-07 16:37 44.21699 1.57844 35155 ft 445 kts 236°
2026-04-07 16:38 44.18364 1.50582 35151 ft 445 kts 237°
2026-04-07 16:38 44.15011 1.43341 35153 ft 444 kts 237°
2026-04-07 16:39 44.11657 1.36116 35151 ft 443 kts 237°
2026-04-07 16:39 44.08306 1.28910 35144 ft 443 kts 236°
2026-04-07 16:40 44.04978 1.21761 35143 ft 443 kts 237°
2026-04-07 16:40 44.01625 1.14577 35141 ft 442 kts 237°
2026-04-07 16:41 43.98274 1.07416 35144 ft 442 kts 236°
2026-04-07 16:41 43.94942 1.00320 35142 ft 441 kts 236°
2026-04-07 16:42 43.91587 0.93187 35140 ft 440 kts 236°
2026-04-07 16:42 43.87980 0.86348 35137 ft 439 kts 225°
2026-04-07 16:43 43.83459 0.80661 35127 ft 439 kts 221°
2026-04-07 16:43 43.78905 0.75050 35134 ft 438 kts 221°
2026-04-07 16:44 43.74347 0.69430 35146 ft 437 kts 221°
2026-04-07 16:44 43.69834 0.63882 35139 ft 436 kts 221°
2026-04-07 16:45 43.65304 0.58314 35135 ft 436 kts 221°
2026-04-07 16:45 43.60764 0.52759 35130 ft 436 kts 221°
2026-04-07 16:46 43.56229 0.47212 35128 ft 436 kts 221°
2026-04-07 16:46 43.51692 0.41673 35127 ft 436 kts 221°
2026-04-07 16:47 43.47149 0.36134 35133 ft 436 kts 221°
2026-04-07 16:47 43.42602 0.30612 35131 ft 436 kts 221°
2026-04-07 16:48 43.38079 0.25136 35120 ft 436 kts 221°
2026-04-07 16:49 43.31241 0.16877 35121 ft 436 kts 221°
2026-04-07 16:49 43.26683 0.11381 35133 ft 436 kts 221°
2026-04-07 16:50 43.22112 0.05877 35131 ft 436 kts 221°
2026-04-07 16:50 43.17546 0.00392 35150 ft 436 kts 221°
2026-04-07 16:51 43.12985 -0.05083 35137 ft 435 kts 220°
2026-04-07 16:51 43.08455 -0.10500 35142 ft 434 kts 220°
2026-04-07 16:52 43.03899 -0.15927 35144 ft 435 kts 220°
2026-04-07 16:52 42.99343 -0.21357 35157 ft 434 kts 220°
2026-04-07 16:53 42.94786 -0.26765 35162 ft 433 kts 220°
2026-04-07 16:53 42.90263 -0.32117 35161 ft 432 kts 220°
2026-04-07 16:54 42.85723 -0.37487 35177 ft 432 kts 220°
2026-04-07 16:54 42.81086 -0.42708 35175 ft 431 kts 212°
2026-04-07 16:55 42.75701 -0.46207 35169 ft 429 kts 200°
2026-04-07 16:55 42.71060 -0.48636 35169 ft 429 kts 200°
2026-04-07 16:56 42.65485 -0.51578 35174 ft 430 kts 201°
2026-04-07 16:56 42.59002 -0.54993 35175 ft 430 kts 200°
2026-04-07 16:57 42.54320 -0.57442 35175 ft 430 kts 200°
2026-04-07 16:57 42.48773 -0.60341 35175 ft 430 kts 200°
2026-04-07 16:58 42.43190 -0.63252 35157 ft 430 kts 200°
2026-04-07 16:58 42.37610 -0.66168 35159 ft 430 kts 200°
2026-04-07 16:59 42.32026 -0.69063 35161 ft 429 kts 200°
2026-04-07 16:59 42.26448 -0.71948 35156 ft 429 kts 200°
2026-04-07 17:00 42.20877 -0.74834 35159 ft 429 kts 200°
2026-04-07 17:00 42.15315 -0.77717 35159 ft 428 kts 200°
2026-04-07 17:01 42.09762 -0.80579 35149 ft 427 kts 200°
2026-04-07 17:01 42.04224 -0.83432 35147 ft 426 kts 200°
2026-04-07 17:02 41.98718 -0.86266 35140 ft 426 kts 200°
2026-04-07 17:02 41.93180 -0.89109 35129 ft 425 kts 200°
2026-04-07 17:03 41.87648 -0.91941 35125 ft 425 kts 200°
2026-04-07 17:03 41.82106 -0.94770 35113 ft 425 kts 200°
2026-04-07 17:04 41.76581 -0.97591 35106 ft 425 kts 200°
2026-04-07 17:04 41.71046 -1.00413 35108 ft 425 kts 200°
2026-04-07 17:05 41.65675 -1.03679 35107 ft 425 kts 212°
2026-04-07 17:05 41.61110 -1.08753 35103 ft 426 kts 221°
2026-04-07 17:06 41.56752 -1.14025 35452 ft 424 kts 220°
2026-04-07 17:06 41.54566 -1.16655 35717 ft 422 kts 220°
2026-04-07 17:06 41.52384 -1.19274 35956 ft 421 kts 220°
2026-04-07 17:07 41.48020 -1.24515 36102 ft 423 kts 221°
2026-04-07 17:07 41.45831 -1.27145 35931 ft 422 kts 221°
2026-04-07 17:07 41.43651 -1.29761 35333 ft 421 kts 220°
2026-04-07 17:07 41.41478 -1.32366 35116 ft 420 kts 220°
2026-04-07 17:08 41.39295 -1.34981 35093 ft 423 kts 220°
2026-04-07 17:08 41.34902 -1.40240 35095 ft 425 kts 220°
2026-04-07 17:09 41.30509 -1.45508 35095 ft 425 kts 220°
2026-04-07 17:09 41.26121 -1.50776 35097 ft 425 kts 220°
2026-04-07 17:10 41.21723 -1.56052 35084 ft 426 kts 220°
2026-04-07 17:10 41.17296 -1.61339 35094 ft 432 kts 220°
2026-04-07 17:11 41.12793 -1.66698 35087 ft 437 kts 220°
2026-04-07 17:11 41.08290 -1.72060 35086 ft 437 kts 220°
2026-04-07 17:12 41.03764 -1.77437 35090 ft 437 kts 220°
2026-04-07 17:12 40.99226 -1.82815 35092 ft 438 kts 220°
2026-04-07 17:13 40.94686 -1.88182 35228 ft 437 kts 220°
2026-04-07 17:13 40.92415 -1.90869 35391 ft 437 kts 220°
2026-04-07 17:13 40.90151 -1.93547 35601 ft 435 kts 220°
2026-04-07 17:13 40.87899 -1.96207 35806 ft 433 kts 220°
2026-04-07 17:14 40.85655 -1.98853 35983 ft 432 kts 220°
2026-04-07 17:14 40.83419 -2.01490 36144 ft 431 kts 220°
2026-04-07 17:14 40.81186 -2.04119 36297 ft 431 kts 220°
2026-04-07 17:14 40.78944 -2.06750 36451 ft 430 kts 220°
2026-04-07 17:15 40.76710 -2.09369 36594 ft 430 kts 220°
2026-04-07 17:15 40.74473 -2.11986 36732 ft 429 kts 220°
2026-04-07 17:15 40.72237 -2.14600 36854 ft 429 kts 220°
2026-04-07 17:15 40.70040 -2.17171 37016 ft 428 kts 220°
2026-04-07 17:16 40.67808 -2.19782 37088 ft 428 kts 220°
2026-04-07 17:16 40.65581 -2.22383 36792 ft 427 kts 219°
2026-04-07 17:16 40.63360 -2.24976 36245 ft 425 kts 219°
2026-04-07 17:16 40.61150 -2.27555 36061 ft 426 kts 219°
2026-04-07 17:17 40.58922 -2.30153 36101 ft 428 kts 219°
2026-04-07 17:17 40.54440 -2.35360 36083 ft 433 kts 219°
2026-04-07 17:18 40.49915 -2.40612 36086 ft 435 kts 219°
2026-04-07 17:18 40.45408 -2.45840 36073 ft 435 kts 219°
2026-04-07 17:19 40.40861 -2.51097 36075 ft 435 kts 219°
2026-04-07 17:19 40.36314 -2.56339 36078 ft 435 kts 219°
2026-04-07 17:20 40.31763 -2.61582 36074 ft 435 kts 219°
2026-04-07 17:20 40.27223 -2.66822 36074 ft 435 kts 219°
2026-04-07 17:21 40.22678 -2.72051 36077 ft 434 kts 219°
2026-04-07 17:21 40.18177 -2.77210 36075 ft 432 kts 218°
2026-04-07 17:22 40.13650 -2.82382 36076 ft 432 kts 218°
2026-04-07 17:22 40.09123 -2.87540 36076 ft 431 kts 218°
2026-04-07 17:23 40.04592 -2.92701 36076 ft 431 kts 218°
2026-04-07 17:23 40.00066 -2.97857 36073 ft 431 kts 219°
2026-04-07 17:24 39.95552 -3.02999 36076 ft 430 kts 218°
2026-04-07 17:24 39.91061 -3.08086 36075 ft 430 kts 218°
2026-04-07 17:25 39.86536 -3.13197 36078 ft 430 kts 218°
2026-04-07 17:25 39.82011 -3.18301 36079 ft 430 kts 218°
2026-04-07 17:26 39.77483 -3.23414 36078 ft 430 kts 218°
2026-04-07 17:26 39.72987 -3.28470 36074 ft 429 kts 218°
2026-04-07 17:27 39.68471 -3.33539 36076 ft 429 kts 218°
2026-04-07 17:27 39.63955 -3.38610 36077 ft 429 kts 218°
2026-04-07 17:28 39.59437 -3.43672 36117 ft 429 kts 217°
2026-04-07 17:28 39.54925 -3.48713 36082 ft 428 kts 218°
2026-04-07 17:29 39.50418 -3.53737 36085 ft 427 kts 218°
2026-04-07 17:29 39.45911 -3.58754 36087 ft 427 kts 218°
2026-04-07 17:30 39.41432 -3.63731 36079 ft 427 kts 218°
2026-04-07 17:30 39.36925 -3.68740 36087 ft 427 kts 218°
2026-04-07 17:31 39.32410 -3.73747 36088 ft 427 kts 218°
2026-04-07 17:31 39.27892 -3.78741 36082 ft 428 kts 218°
2026-04-07 17:32 39.23358 -3.83736 36105 ft 428 kts 218°
2026-04-07 17:32 39.18865 -3.88675 36085 ft 426 kts 218°
2026-04-07 17:33 39.14346 -3.93639 36085 ft 426 kts 218°
2026-04-07 17:33 39.09835 -3.98598 36085 ft 426 kts 218°
2026-04-07 17:34 39.05323 -4.03555 36084 ft 426 kts 218°
2026-04-07 17:34 39.00830 -4.08471 36086 ft 422 kts 218°
2026-04-07 17:35 38.96351 -4.13353 36087 ft 422 kts 218°
2026-04-07 17:35 38.91873 -4.18223 36086 ft 422 kts 218°
2026-04-07 17:36 38.87421 -4.23074 36085 ft 422 kts 218°
2026-04-07 17:36 38.82942 -4.27950 36083 ft 422 kts 218°
2026-04-07 17:37 38.78461 -4.32805 36085 ft 421 kts 218°
2026-04-07 17:37 38.73991 -4.37642 36084 ft 421 kts 218°
2026-04-07 17:38 38.69511 -4.42481 36084 ft 421 kts 218°
2026-04-07 17:38 38.65067 -4.47283 36090 ft 420 kts 218°
2026-04-07 17:39 38.60592 -4.52111 36088 ft 420 kts 218°
2026-04-07 17:39 38.56110 -4.56934 36077 ft 421 kts 218°
2026-04-07 17:40 38.51642 -4.61730 36090 ft 418 kts 218°
2026-04-07 17:40 38.47183 -4.66511 36087 ft 418 kts 218°
2026-04-07 17:41 38.42749 -4.71250 36087 ft 418 kts 218°
2026-04-07 17:41 38.38284 -4.76021 36081 ft 418 kts 218°
2026-04-07 17:42 38.33825 -4.80784 36081 ft 418 kts 218°
2026-04-07 17:42 38.29361 -4.85543 36084 ft 418 kts 218°
2026-04-07 17:43 38.24892 -4.90285 36078 ft 418 kts 218°
2026-04-07 17:43 38.20456 -4.94996 36079 ft 418 kts 218°
2026-04-07 17:44 38.15985 -4.99742 36075 ft 418 kts 217°
2026-04-07 17:44 38.11511 -5.04466 36079 ft 418 kts 217°
2026-04-07 17:45 38.07789 -5.08390 36068 ft 418 kts 218°
2026-04-07 17:45 38.03321 -5.13104 36072 ft 417 kts 218°
2026-04-07 17:46 37.98850 -5.17812 36072 ft 417 kts 218°
2026-04-07 17:46 37.94386 -5.22508 36070 ft 417 kts 218°
2026-04-07 17:47 37.89937 -5.27180 36074 ft 417 kts 218°
2026-04-07 17:47 37.85459 -5.31876 36070 ft 417 kts 218°
2026-04-07 17:48 37.80994 -5.36542 36074 ft 414 kts 218°
2026-04-07 17:48 37.76555 -5.41169 36066 ft 413 kts 218°
2026-04-07 17:49 37.72120 -5.45789 36071 ft 413 kts 218°
2026-04-07 17:49 37.67694 -5.50407 36068 ft 413 kts 218°
2026-04-07 17:50 37.63278 -5.54993 36074 ft 413 kts 218°
2026-04-07 17:50 37.58838 -5.59603 36071 ft 413 kts 218°
2026-04-07 17:51 37.54414 -5.64182 36067 ft 411 kts 218°
2026-04-07 17:51 37.49994 -5.68752 36061 ft 410 kts 218°
2026-04-07 17:52 37.45582 -5.73307 36054 ft 409 kts 217°
2026-04-07 17:52 37.41227 -5.77817 36057 ft 408 kts 218°
2026-04-07 17:53 37.36892 -5.82438 36057 ft 408 kts 218°
2026-04-07 17:53 37.30405 -5.89395 36059 ft 408 kts 218°
2026-04-07 17:54 37.26068 -5.94001 36079 ft 408 kts 218°
2026-04-07 17:54 37.21726 -5.98598 36079 ft 408 kts 218°
2026-04-07 17:55 37.17387 -6.03190 36073 ft 408 kts 218°
2026-04-07 17:55 37.13049 -6.07778 36072 ft 408 kts 218°
2026-04-07 17:56 37.08733 -6.12327 36076 ft 408 kts 218°
2026-04-07 17:56 37.04389 -6.16895 36080 ft 407 kts 218°
2026-04-07 17:57 37.00052 -6.21450 36080 ft 406 kts 218°
2026-04-07 17:57 36.95724 -6.26001 36082 ft 406 kts 218°
2026-04-07 17:58 36.91399 -6.30546 36084 ft 406 kts 218°
2026-04-07 17:58 36.87090 -6.35056 36085 ft 406 kts 218°
2026-04-07 17:59 36.82748 -6.39588 36083 ft 406 kts 218°
2026-04-07 17:59 36.78414 -6.44118 36084 ft 406 kts 218°
2026-04-07 18:00 36.74090 -6.48633 36085 ft 405 kts 218°
2026-04-07 18:00 36.69767 -6.53136 36085 ft 405 kts 218°
2026-04-07 18:01 36.65459 -6.57608 36090 ft 405 kts 218°
2026-04-07 18:01 36.61122 -6.62095 36090 ft 405 kts 218°
2026-04-07 18:02 36.56784 -6.66587 36090 ft 405 kts 218°
2026-04-07 18:02 36.52454 -6.71082 36091 ft 405 kts 219°
2026-04-07 18:03 36.48125 -6.75554 36091 ft 404 kts 218°
2026-04-07 18:03 36.43817 -6.79988 36094 ft 404 kts 218°
2026-04-07 18:04 36.39479 -6.84447 36142 ft 404 kts 219°
2026-04-07 18:04 36.35138 -6.88913 36096 ft 405 kts 219°
2026-04-07 18:05 36.30818 -6.93354 36095 ft 405 kts 219°
2026-04-07 18:05 36.26473 -6.97808 36095 ft 405 kts 219°
2026-04-07 18:06 36.22122 -7.02256 36097 ft 404 kts 219°
2026-04-07 18:06 36.17804 -7.06668 36098 ft 404 kts 219°
2026-04-07 18:07 36.13453 -7.11111 36098 ft 404 kts 219°
2026-04-07 18:07 36.09103 -7.15548 36098 ft 404 kts 219°
2026-04-07 18:08 36.04756 -7.19968 36098 ft 405 kts 219°
2026-04-07 18:08 36.00432 -7.24366 36099 ft 405 kts 220°
2026-04-07 18:09 35.96074 -7.28788 36100 ft 405 kts 220°
2026-04-07 18:09 35.91710 -7.33208 36100 ft 406 kts 220°
2026-04-07 18:10 35.87347 -7.37617 36101 ft 406 kts 219°
2026-04-07 18:10 35.82980 -7.42019 36100 ft 405 kts 219°
2026-04-07 18:11 35.78598 -7.46400 36103 ft 406 kts 219°
2026-04-07 18:11 35.74213 -7.50771 36103 ft 406 kts 219°
2026-04-07 18:12 35.69824 -7.55146 36106 ft 406 kts 219°
2026-04-07 18:12 35.65434 -7.59512 36110 ft 406 kts 219°
2026-04-07 18:13 35.61055 -7.63862 36105 ft 409 kts 220°
2026-04-07 18:13 35.56622 -7.68260 36104 ft 410 kts 219°
2026-04-07 18:14 35.52434 -7.72400 36112 ft 410 kts 219°
2026-04-07 18:14 35.47985 -7.76797 36111 ft 409 kts 220°
2026-04-07 18:15 35.43760 -7.80974 36111 ft 409 kts 220°
2026-04-07 18:15 35.39606 -7.85086 36111 ft 409 kts 220°
2026-04-07 18:16 35.35222 -7.89467 36114 ft 409 kts 220°
2026-04-07 18:16 35.30820 -7.93880 36114 ft 409 kts 220°
2026-04-07 18:17 35.26415 -7.98281 36114 ft 409 kts 220°
2026-04-07 18:17 35.22005 -8.02679 36103 ft 408 kts 220°
2026-04-07 18:18 35.17596 -8.07070 36122 ft 408 kts 220°
2026-04-07 18:18 35.13183 -8.11440 36118 ft 408 kts 220°
2026-04-07 18:19 35.08775 -8.15810 36115 ft 408 kts 220°
2026-04-07 18:19 35.04389 -8.20156 36118 ft 408 kts 220°
2026-04-07 18:20 34.99974 -8.24524 36119 ft 408 kts 220°
2026-04-07 18:20 34.95561 -8.28878 36090 ft 408 kts 220°
2026-04-07 18:21 34.91150 -8.33232 36121 ft 407 kts 221°
2026-04-07 18:21 34.86732 -8.37582 36121 ft 409 kts 221°
2026-04-07 18:22 34.82296 -8.41939 36125 ft 410 kts 221°
2026-04-07 18:22 34.77858 -8.46300 36125 ft 410 kts 221°
2026-04-07 18:23 34.73413 -8.50660 36128 ft 410 kts 221°
2026-04-07 18:23 34.68964 -8.55013 36096 ft 410 kts 221°
2026-04-07 18:24 34.64543 -8.59335 36123 ft 410 kts 221°
2026-04-07 18:24 34.60088 -8.63674 36123 ft 410 kts 221°
2026-04-07 18:25 34.55635 -8.68012 36136 ft 410 kts 221°
2026-04-07 18:25 34.51189 -8.72348 36151 ft 410 kts 222°
2026-04-07 18:26 34.46726 -8.76686 36133 ft 411 kts 222°
2026-04-07 18:26 34.42254 -8.81023 36133 ft 412 kts 222°
2026-04-07 18:27 34.37796 -8.85310 36132 ft 411 kts 222°
2026-04-07 18:27 34.33307 -8.89623 36141 ft 411 kts 222°
2026-04-07 18:28 34.28821 -8.93930 36143 ft 411 kts 222°
2026-04-07 18:28 34.24328 -8.98229 36142 ft 411 kts 222°
2026-04-07 18:29 34.19834 -9.02527 36140 ft 411 kts 222°
2026-04-07 18:29 34.15345 -9.06816 36142 ft 411 kts 222°
2026-04-07 18:30 34.10873 -9.11079 36148 ft 413 kts 223°
2026-04-07 18:30 34.06329 -9.15409 36148 ft 414 kts 223°
2026-04-07 18:31 34.01838 -9.19689 36145 ft 414 kts 223°
2026-04-07 18:31 33.97306 -9.24000 36148 ft 414 kts 223°
2026-04-07 18:32 33.92765 -9.28302 36149 ft 414 kts 223°
2026-04-07 18:32 33.88262 -9.32566 36149 ft 414 kts 223°
2026-04-07 18:33 33.83725 -9.36851 36154 ft 415 kts 224°
2026-04-07 18:33 33.79181 -9.41146 36155 ft 416 kts 224°
2026-04-07 18:34 33.75393 -9.44719 36155 ft 416 kts 224°
2026-04-07 18:34 33.70824 -9.49026 36154 ft 417 kts 224°
2026-04-07 18:35 33.66248 -9.53333 36158 ft 418 kts 224°
2026-04-07 18:35 33.61665 -9.57642 36160 ft 418 kts 224°
2026-04-07 18:36 33.57095 -9.61945 36121 ft 418 kts 225°
2026-04-07 18:36 33.52532 -9.66217 36160 ft 419 kts 225°
2026-04-07 18:37 33.47928 -9.70521 36166 ft 419 kts 225°
2026-04-07 18:37 33.43336 -9.74817 36166 ft 419 kts 225°
2026-04-07 18:38 33.38737 -9.79111 36166 ft 419 kts 225°
2026-04-07 18:38 33.34168 -9.83366 36172 ft 419 kts 225°
2026-04-07 18:39 33.29556 -9.87657 36170 ft 420 kts 225°
2026-04-07 18:39 33.24934 -9.91953 36173 ft 421 kts 226°
2026-04-07 18:40 33.20311 -9.96251 36169 ft 421 kts 226°
2026-04-07 18:40 33.15678 -10.00549 36171 ft 421 kts 226°
2026-04-07 18:41 33.11067 -10.04813 36171 ft 421 kts 226°
2026-04-07 18:41 33.06433 -10.09095 36176 ft 421 kts 226°
2026-04-07 18:42 33.01793 -10.13380 36175 ft 421 kts 226°
2026-04-07 18:42 32.97152 -10.17646 36175 ft 421 kts 226°
2026-04-07 18:43 32.92547 -10.21884 36177 ft 421 kts 226°
2026-04-07 18:43 32.87868 -10.26182 36182 ft 422 kts 226°
2026-04-07 18:44 32.83245 -10.30421 36184 ft 422 kts 226°
2026-04-07 18:44 32.78589 -10.34681 36185 ft 422 kts 226°
2026-04-07 18:45 32.73930 -10.38937 36185 ft 422 kts 226°
2026-04-07 18:45 32.69265 -10.43196 36186 ft 423 kts 227°
2026-04-07 18:46 32.64602 -10.47465 36197 ft 423 kts 227°
2026-04-07 18:46 32.59930 -10.51720 36189 ft 423 kts 226°
2026-04-07 18:47 32.55254 -10.55969 36191 ft 423 kts 226°
2026-04-07 18:47 32.50569 -10.60224 36194 ft 425 kts 227°
2026-04-07 18:48 32.45872 -10.64483 36182 ft 425 kts 227°
2026-04-07 18:48 32.41192 -10.68720 36192 ft 427 kts 227°
2026-04-07 18:49 32.36473 -10.73001 36196 ft 428 kts 227°
2026-04-07 18:49 32.31742 -10.77285 36195 ft 428 kts 227°
2026-04-07 18:50 32.27007 -10.81558 36195 ft 428 kts 227°
2026-04-07 18:50 32.22270 -10.85822 36196 ft 428 kts 227°
2026-04-07 18:51 32.17530 -10.90086 36201 ft 428 kts 227°
2026-04-07 18:51 32.12787 -10.94340 36168 ft 429 kts 227°
2026-04-07 18:52 32.08017 -10.98638 36202 ft 432 kts 227°
2026-04-07 18:52 32.03248 -11.02915 36203 ft 433 kts 227°
2026-04-07 18:53 31.98446 -11.07204 36203 ft 433 kts 227°
2026-04-07 18:53 31.93639 -11.11490 36208 ft 433 kts 227°
2026-04-07 18:54 31.88834 -11.15780 36203 ft 433 kts 227°
2026-04-07 18:54 31.84020 -11.20064 36179 ft 434 kts 226°
2026-04-07 18:55 31.79194 -11.24349 36207 ft 435 kts 226°
2026-04-07 18:55 31.74389 -11.28612 36205 ft 435 kts 226°
2026-04-07 18:56 31.69565 -11.32922 36211 ft 436 kts 226°
2026-04-07 18:56 31.64728 -11.37241 36211 ft 437 kts 226°
2026-04-07 18:57 31.59875 -11.41551 36212 ft 437 kts 226°
2026-04-07 18:57 31.55019 -11.45866 36177 ft 438 kts 226°
2026-04-07 18:58 31.50161 -11.50193 36209 ft 439 kts 226°
2026-04-07 18:58 31.45298 -11.54510 36210 ft 439 kts 226°
2026-04-07 18:59 31.40421 -11.58820 36209 ft 439 kts 226°
2026-04-07 18:59 31.35539 -11.63126 36213 ft 439 kts 226°
2026-04-07 19:00 31.30662 -11.67428 36214 ft 439 kts 226°
2026-04-07 19:00 31.25823 -11.71712 36165 ft 439 kts 225°
2026-04-07 19:01 31.20928 -11.76019 36211 ft 441 kts 225°
2026-04-07 19:02 31.13560 -11.82469 36222 ft 441 kts 225°
2026-04-07 19:02 31.08658 -11.86771 36206 ft 441 kts 225°
2026-04-07 19:03 31.03756 -11.91083 36218 ft 441 kts 225°
2026-04-07 19:03 30.98842 -11.95383 36222 ft 441 kts 225°
2026-04-07 19:04 30.93927 -11.99665 36212 ft 441 kts 225°
2026-04-07 19:04 30.89013 -12.03963 36216 ft 441 kts 225°
2026-04-07 19:05 30.84099 -12.08253 36219 ft 442 kts 225°
2026-04-07 19:05 30.79172 -12.12538 36222 ft 442 kts 224°
2026-04-07 19:06 30.74270 -12.16794 36213 ft 442 kts 225°
2026-04-07 19:06 30.69352 -12.21071 36216 ft 442 kts 225°
2026-04-07 19:07 30.64422 -12.25349 36213 ft 441 kts 224°
2026-04-07 19:07 30.59506 -12.29609 36214 ft 441 kts 224°
2026-04-07 19:08 30.54580 -12.33872 36220 ft 441 kts 224°
2026-04-07 19:08 30.49659 -12.38114 36220 ft 441 kts 224°
2026-04-07 19:09 30.44728 -12.42359 36217 ft 442 kts 224°
2026-04-07 19:09 30.39805 -12.46592 36219 ft 442 kts 224°
2026-04-07 19:10 30.34854 -12.50830 36191 ft 442 kts 223°
2026-04-07 19:10 30.29929 -12.55041 36222 ft 443 kts 223°
2026-04-07 19:11 30.24977 -12.59268 35620 ft 441 kts 223°
2026-04-07 19:11 30.22520 -12.61369 35302 ft 440 kts 223°
2026-04-07 19:11 30.20045 -12.63493 35187 ft 444 kts 223°
2026-04-07 19:12 30.15064 -12.67761 35219 ft 447 kts 223°
2026-04-07 19:12 30.10012 -12.71968 35222 ft 452 kts 218°
2026-04-07 19:13 30.04488 -12.75527 35219 ft 454 kts 216°
2026-04-07 19:13 29.98955 -12.79058 35221 ft 455 kts 216°
2026-04-07 19:14 29.93423 -12.82594 35218 ft 455 kts 216°
2026-04-07 19:14 29.87904 -12.86115 34572 ft 452 kts 216°
2026-04-07 19:14 29.85135 -12.87877 33615 ft 455 kts 215°
2026-04-07 19:15 29.82352 -12.89652 32605 ft 458 kts 215°
2026-04-07 19:15 29.79547 -12.91444 31596 ft 462 kts 215°
2026-04-07 19:15 29.76769 -12.93219 30600 ft 465 kts 215°
2026-04-07 19:15 29.73928 -12.95028 29381 ft 468 kts 214°
2026-04-07 19:16 29.71066 -12.96845 28150 ft 472 kts 214°
2026-04-07 19:16 29.68180 -12.98672 26943 ft 475 kts 214°
2026-04-07 19:16 29.65300 -13.00492 26124 ft 470 kts 214°
2026-04-07 19:16 29.62449 -13.02295 25343 ft 465 kts 214°
2026-04-07 19:17 29.59631 -13.04082 24588 ft 460 kts 214°
2026-04-07 19:17 29.56840 -13.05855 23851 ft 456 kts 214°
2026-04-07 19:17 29.54078 -13.07608 23022 ft 452 kts 213°
2026-04-07 19:17 29.51342 -13.09340 22230 ft 446 kts 213°
2026-04-07 19:18 29.48638 -13.11045 21459 ft 441 kts 213°
2026-04-07 19:18 29.45965 -13.12728 20695 ft 435 kts 213°
2026-04-07 19:18 29.43312 -13.14404 20340 ft 435 kts 213°
2026-04-07 19:18 29.40661 -13.16079 20179 ft 435 kts 213°
2026-04-07 19:19 29.38039 -13.17732 20220 ft 436 kts 213°
2026-04-07 19:19 29.35340 -13.19418 20223 ft 436 kts 212°
2026-04-07 19:19 29.32670 -13.20980 20222 ft 437 kts 211°
2026-04-07 19:19 29.29929 -13.22490 20223 ft 438 kts 210°
2026-04-07 19:20 29.27171 -13.23959 19971 ft 433 kts 209°
2026-04-07 19:20 29.25332 -13.24928 19455 ft 430 kts 209°
2026-04-07 19:20 29.21754 -13.26826 18463 ft 424 kts 210°
2026-04-07 19:20 29.19958 -13.27791 17910 ft 421 kts 210°
2026-04-07 19:21 29.17326 -13.29219 17140 ft 416 kts 210°
2026-04-07 19:21 29.14736 -13.30639 16385 ft 411 kts 210°
2026-04-07 19:21 29.12184 -13.32045 16185 ft 406 kts 210°
2026-04-07 19:21 29.09664 -13.33435 16209 ft 409 kts 210°
2026-04-07 19:22 29.07091 -13.34853 16214 ft 410 kts 210°
2026-04-07 19:22 29.04517 -13.36264 16204 ft 410 kts 209°
2026-04-07 19:22 29.01990 -13.37640 16196 ft 391 kts 209°
2026-04-07 19:22 28.99599 -13.38932 16151 ft 370 kts 210°
2026-04-07 19:23 28.97319 -13.40165 16015 ft 353 kts 210°
2026-04-07 19:23 28.95151 -13.41341 15902 ft 337 kts 210°
2026-04-07 19:23 28.93068 -13.42475 15607 ft 328 kts 210°
2026-04-07 19:23 28.91021 -13.43595 15195 ft 324 kts 210°
2026-04-07 19:24 28.88997 -13.44707 14748 ft 321 kts 210°
2026-04-07 19:24 28.86993 -13.45808 14327 ft 318 kts 210°
2026-04-07 19:24 28.85007 -13.46894 13879 ft 315 kts 210°
2026-04-07 19:24 28.83030 -13.47969 13403 ft 313 kts 210°
2026-04-07 19:25 28.81076 -13.49027 12953 ft 310 kts 210°
2026-04-07 19:25 28.79131 -13.50082 12481 ft 308 kts 210°
2026-04-07 19:25 28.77204 -13.51131 11998 ft 307 kts 210°
2026-04-07 19:25 28.75286 -13.52175 11552 ft 304 kts 209°
2026-04-07 19:26 28.73381 -13.53210 11126 ft 302 kts 209°
2026-04-07 19:26 28.71488 -13.54237 10702 ft 299 kts 210°
2026-04-07 19:26 28.69640 -13.55239 10292 ft 297 kts 210°
2026-04-07 19:26 28.67798 -13.56239 10069 ft 288 kts 209°
2026-04-07 19:27 28.66012 -13.57206 9765 ft 281 kts 209°
2026-04-07 19:27 28.64249 -13.58159 9359 ft 279 kts 210°
2026-04-07 19:27 28.62495 -13.59108 8951 ft 278 kts 210°
2026-04-07 19:27 28.60752 -13.60052 8534 ft 277 kts 211°
2026-04-07 19:28 28.59016 -13.60991 8239 ft 274 kts 209°
2026-04-07 19:28 28.57277 -13.61931 8219 ft 278 kts 210°
2026-04-07 19:28 28.55526 -13.62877 8213 ft 279 kts 209°
2026-04-07 19:28 28.53767 -13.63827 8216 ft 279 kts 210°
2026-04-07 19:29 28.52001 -13.64758 8217 ft 280 kts 206°
2026-04-07 19:29 28.50243 -13.65632 8217 ft 280 kts 206°
2026-04-07 19:29 28.48448 -13.66502 8218 ft 281 kts 206°
2026-04-07 19:29 28.46616 -13.67274 8218 ft 283 kts 197°
2026-04-07 19:30 28.44658 -13.67623 8217 ft 285 kts 193°
2026-04-07 19:30 28.42704 -13.67969 8061 ft 282 kts 195°
2026-04-07 19:30 28.40771 -13.68359 7628 ft 282 kts 193°
2026-04-07 19:30 28.38849 -13.68761 7327 ft 277 kts 194°
2026-04-07 19:31 28.36991 -13.69165 7205 ft 265 kts 194°
2026-04-07 19:31 28.35221 -13.69519 7097 ft 249 kts 194°
2026-04-07 19:31 28.33604 -13.69839 6980 ft 222 kts 192°
2026-04-07 19:31 28.32160 -13.70098 6903 ft 198 kts 194°
2026-04-07 19:32 28.30849 -13.70309 6624 ft 186 kts 194°
2026-04-07 19:32 28.29584 -13.70526 6239 ft 182 kts 195°
2026-04-07 19:32 28.28340 -13.70769 5809 ft 182 kts 192°
2026-04-07 19:32 28.27086 -13.71006 5385 ft 182 kts 193°
2026-04-07 19:33 28.25840 -13.71264 4978 ft 181 kts 193°
2026-04-07 19:33 28.24608 -13.71546 4555 ft 180 kts 194°
2026-04-07 19:33 28.23383 -13.71849 4127 ft 181 kts 194°
2026-04-07 19:33 28.22139 -13.72153 3681 ft 184 kts 195°
2026-04-07 19:34 28.21005 -13.72755 3233 ft 179 kts 223°
2026-04-07 19:34 28.20358 -13.73877 3001 ft 166 kts 261°
2026-04-07 19:34 28.20300 -13.75107 2998 ft 148 kts 291°
2026-04-07 19:34 28.20548 -13.76204 3004 ft 144 kts 294°
2026-04-07 19:35 28.20798 -13.77303 3002 ft 144 kts 293°
2026-04-07 19:35 28.21048 -13.78397 3004 ft 142 kts 292°
2026-04-07 19:35 28.21296 -13.79478 3007 ft 142 kts 291°
2026-04-07 19:35 28.21543 -13.80558 3007 ft 141 kts 291°
2026-04-07 19:36 28.21790 -13.81639 3008 ft 141 kts 292°
2026-04-07 19:36 28.22037 -13.82720 3006 ft 143 kts 291°
2026-04-07 19:36 28.22289 -13.83817 3006 ft 144 kts 291°
2026-04-07 19:36 28.22543 -13.84911 3007 ft 143 kts 292°
2026-04-07 19:37 28.22991 -13.85892 2998 ft 137 kts 315°
2026-04-07 19:37 28.23687 -13.86595 3004 ft 133 kts 334°
2026-04-07 19:37 28.24551 -13.86901 2998 ft 130 kts
2026-04-07 19:37 28.25448 -13.86917 3013 ft 128 kts 358°
2026-04-07 19:38 28.26330 -13.86941 3013 ft 127 kts 359°
2026-04-07 19:38 28.27196 -13.86940 3008 ft 123 kts
2026-04-07 19:38 28.28057 -13.86927 3007 ft 125 kts
2026-04-07 19:38 28.28920 -13.86906 2946 ft 125 kts
2026-04-07 19:39 28.29793 -13.86882 2818 ft 126 kts
2026-04-07 19:39 28.30650 -13.86856 2685 ft 123 kts
2026-04-07 19:39 28.31508 -13.86829 2537 ft 121 kts
2026-04-07 19:39 28.32345 -13.86802 2374 ft 121 kts
2026-04-07 19:40 28.33187 -13.86775 2216 ft 120 kts
2026-04-07 19:40 28.34028 -13.86747 2062 ft 121 kts
2026-04-07 19:40 28.34862 -13.86720 1897 ft 118 kts
2026-04-07 19:40 28.35685 -13.86693 1735 ft 118 kts
2026-04-07 19:41 28.36504 -13.86666 1573 ft 117 kts
2026-04-07 19:41 28.37318 -13.86639 1410 ft 121 kts
2026-04-07 19:41 28.38156 -13.86611 1250 ft 121 kts
2026-04-07 19:41 28.39018 -13.86583 1087 ft 125 kts
2026-04-07 19:42 28.39883 -13.86554 926 ft 122 kts
2026-04-07 19:42 28.40727 -13.86526 773 ft 119 kts
2026-04-07 19:42 28.41557 -13.86492 600 ft 117 kts
2026-04-07 19:42 28.42388 -13.86461 402 ft 121 kts
2026-04-07 19:43 28.43245 -13.86445 229 ft 125 kts
2026-04-07 19:43 28.44109 -13.86407 125 ft 123 kts
2026-04-07 19:43 28.44908 -13.86384 98 ft 101 kts
2026-04-07 19:43 28.45674 -13.86360 264 ft 130 kts
2026-04-07 19:44 28.46671 -13.86290 810 ft 158 kts
2026-04-07 19:44 28.47779 -13.86162 1701 ft 164 kts 11°
2026-04-07 19:44 28.48807 -13.85499 1946 ft 188 kts 44°
2026-04-07 19:44 28.49322 -13.84050 2299 ft 210 kts 80°
2026-04-07 19:45 28.48958 -13.82388 2757 ft 228 kts 111°
2026-04-07 19:45 28.47872 -13.81055 2974 ft 241 kts 144°
2026-04-07 19:45 28.46268 -13.80494 3018 ft 246 kts 175°
2026-04-07 19:45 28.44594 -13.80729 3010 ft 245 kts 201°
2026-04-07 19:46 28.42993 -13.81434 3015 ft 246 kts 202°
2026-04-07 19:46 28.41404 -13.82083 2811 ft 238 kts 201°
2026-04-07 19:46 28.39874 -13.82715 2514 ft 226 kts 201°
2026-04-07 19:46 28.38469 -13.83304 2439 ft 202 kts 202°
2026-04-07 19:47 28.37302 -13.84005 2231 ft 181 kts 229°
2026-04-07 19:47 28.36958 -13.85171 2036 ft 140 kts 299°
2026-04-07 19:47 28.37588 -13.85804 1654 ft 124 kts 342°
2026-04-07 19:47 28.38402 -13.86102 1327 ft 120 kts 351°
2026-04-07 19:48 28.39216 -13.86300 1048 ft 119 kts 353°
2026-04-07 19:48 28.40040 -13.86429 872 ft 118 kts 357°
2026-04-07 19:48 28.40860 -13.86483 763 ft 116 kts 359°
2026-04-07 19:48 28.41677 -13.86475 535 ft 119 kts
2026-04-07 19:49 28.42518 -13.86447 358 ft 124 kts
2026-04-07 19:49 28.43381 -13.86431 202 ft 124 kts
2026-04-07 19:49 28.44235 -13.86406 95 ft 122 kts
2026-04-07 19:49 28.44980 -13.86384 86 ft 92 kts
2026-04-07 19:50 28.45515 -13.86365 88 ft 62 kts
2026-04-07 19:50 28.45859 -13.86358 93 ft 42 kts 357°
2026-04-07 19:50 28.46089 -13.86441 100 ft 24 kts 332°
2026-04-07 19:50 28.46137 -13.86491 101 ft 1 kts 289°
2026-04-07 19:51 28.46139 -13.86507 101 ft 3 kts 274°
2026-04-07 19:51 28.46122 -13.86536 101 ft 7 kts 214°
2026-04-07 19:51 28.46054 -13.86546 97 ft 12 kts 181°
2026-04-07 19:51 28.45953 -13.86548 97 ft 17 kts 181°
2026-04-07 19:52 28.45821 -13.86552 93 ft 21 kts 182°
2026-04-07 19:52 28.45661 -13.86558 91 ft 25 kts 182°
2026-04-07 19:52 28.45478 -13.86564 91 ft 24 kts 181°
2026-04-07 19:52 28.45370 -13.86610 86 ft 15 kts 264°
2026-04-07 19:53 28.45381 -13.86729 89 ft 14 kts 277°
2026-04-07 19:53 28.45383 -13.86819 86 ft 0 kts 271°
2026-04-07 19:53 28.45383 -13.86831 86 ft 0 kts 271°